Total_Precipitation_Accumulation
0.03 0.07 0.14 0.21 0.20 0.14 0.10 0.08 0.10 0.12 0.22 0.39 0.59 0.72 0.78 0.81 0.86 0.75 0.66 0.71 0.76 0.85 0.92 1.00 1.08 1.07 1.07 1.17 1.20 1.32 1.63 1.75 1.89 1.92 1.95 2.07 2.16 2.16 2.21 2.22 2.19 2.39 2.43 2.40
0.04 0.06 0.09 0.13 0.17 0.13 0.10 0.10 0.11 0.14 0.25 0.40 0.64 0.72 0.79 0.77 0.78 0.76 0.79 0.81 0.90 0.95 1.00 1.06 1.14 1.25 1.29 1.30 1.34 1.54 1.97 2.27 2.38 2.43 2.46 2.51 2.58 2.56 2.56 2.51 2.65 2.68 2.53 2.48
0.06 0.08 0.11 0.16 0.15 0.15 0.13 0.13 0.17 0.23 0.33 0.44 0.60 0.79 0.90 0.81 0.68 0.70 0.73 0.77 0.86 1.02 1.15 1.18 1.24 1.33 1.44 1.51 1.57 1.72 2.01 2.22 2.33 2.44 2.53 2.70 2.74 2.75 2.73 2.74 2.76 2.76 2.79 2.76
0.13 0.14 0.21 0.21 0.22 0.24 0.23 0.24 0.27 0.39 0.51 0.56 0.62 0.73 0.79 0.69 0.66 0.69 0.75 0.86 0.98 1.03 1.19 1.32 1.45 1.61 1.83 2.00 2.11 2.13 2.25 2.42 2.53 2.52 2.56 2.63 2.62 2.54 2.57 2.70 2.72 2.68 2.61 2.54
0.25 0.24 0.24 0.28 0.33 0.34 0.35 0.47 0.52 0.65 0.78 0.85 0.83 0.81 0.93 0.84 0.78 0.79 0.92 1.06 1.26 1.40 1.43 1.54 1.67 1.82 2.00 2.26 2.43 2.49 2.45 2.58 2.70 2.78 2.83 2.72 2.60 2.62 2.66 2.72 2.60 2.52 2.46 2.45
0.37 0.41 0.44 0.41 0.45 0.44 0.49 0.87 0.82 0.88 1.00 1.07 1.13 1.38 1.39 1.11 1.08 1.01 1.00 1.13 1.25 1.43 1.56 1.62 1.80 1.89 1.98 2.14 2.27 2.38 2.43 2.53 2.68 2.76 2.91 3.00 2.92 2.92 2.87 2.79 2.68 2.62 2.54 2.56
0.47 0.53 0.55 0.50 0.48 0.53 0.98 1.38 1.17 1.10 1.16 1.27 1.42 1.46 1.34 1.18 1.24 1.25 1.11 1.09 1.14 1.23 1.41 1.51 1.60 1.72 1.89 1.97 1.98 2.08 2.14 2.16 2.36 2.63 2.82 2.95 3.03 3.01 3.02 2.92 2.81 2.63 2.46 2.41
0.67 0.86 0.97 0.68 0.60 0.92 1.24 1.22 1.34 1.26 1.27 1.37 1.42 1.44 1.43 1.41 1.39 1.30 1.21 1.12 1.15 1.24 1.34 1.41 1.55 1.80 1.99 2.03 2.02 2.05 2.13 2.25 2.38 2.60 2.70 2.73 2.83 2.88 3.00 2.97 2.89 2.80 2.57 2.35
1.06 1.21 1.10 0.81 0.87 0.98 1.02 1.20 1.30 1.33 1.34 1.39 1.41 1.39 1.33 1.27 1.25 1.31 1.24 1.24 1.21 1.24 1.37 1.56 1.76 1.99 2.21 2.24 2.29 2.33 2.37 2.46 2.52 2.58 2.67 2.74 2.79 2.79 2.79 2.76 2.64 2.55 2.42 2.32
1.37 1.52 1.30 1.10 1.06 1.11 1.20 1.33 1.43 1.54 1.60 1.51 1.40 1.31 1.33 1.33 1.30 1.36 1.35 1.30 1.27 1.27 1.36 1.56 1.68 1.79 2.02 2.18 2.25 2.41 2.43 2.37 2.34 2.33 2.38 2.45 2.56 2.60 2.55 2.47 2.41 2.33 2.27 2.21
1.75 1.95 1.82 1.60 1.39 1.34 1.42 1.68 1.84 1.82 1.75 1.68 1.63 1.58 1.63 1.60 1.48 1.40 1.38 1.39 1.39 1.43 1.50 1.54 1.57 1.63 1.76 1.92 2.07 2.27 2.38 2.38 2.41 2.41 2.42 2.45 2.53 2.62 2.49 2.36 2.35 2.23 2.10 2.12
2.09 2.03 2.12 2.00 1.62 1.57 1.61 1.78 1.91 1.85 1.85 1.90 1.88 1.79 1.65 1.58 1.52 1.48 1.47 1.50 1.55 1.60 1.63 1.60 1.58 1.68 1.80 1.94 2.14 2.38 2.39 2.30 2.32 2.40 2.48 2.53 2.57 2.65 2.72 2.47 2.40 2.28 2.16 2.08
1.80 1.87 1.93 1.85 1.76 1.79 1.83 1.86 1.94 1.94 1.89 1.93 1.94 1.83 1.64 1.51 1.48 1.49 1.54 1.53 1.63 1.69 1.64 1.59 1.56 1.66 1.79 1.98 2.21 2.42 2.43 2.42 2.43 2.42 2.47 2.49 2.44 2.39 2.45 2.38 2.18 2.09 1.99 1.84
1.84 1.90 2.06 2.07 2.05 1.99 2.14 2.20 2.19 2.14 2.09 2.02 1.95 1.82 1.68 1.70 1.68 1.61 1.62 1.68 1.64 1.59 1.51 1.54 1.56 1.54 1.63 1.80 2.07 2.31 2.38 2.45 2.48 2.46 2.41 2.38 2.29 2.22 2.18 2.17 2.01 1.84 1.75 1.67
1.89 1.84 1.96 1.95 2.06 2.08 2.21 2.32 2.33 2.31 2.22 2.09 1.93 1.79 1.61 1.62 1.80 1.83 1.84 1.91 1.77 1.60 1.53 1.50 1.46 1.41 1.45 1.57 1.74 2.02 2.17 2.12 2.09 2.10 2.09 2.07 1.98 1.92 1.87 1.81 1.80 1.82 1.68 1.53
1.74 1.83 1.86 1.92 1.95 1.90 1.95 2.02 2.11 2.14 2.10 1.97 1.81 1.72 1.57 1.54 1.60 1.69 1.81 1.86 1.87 1.76 1.61 1.50 1.53 1.50 1.40 1.50 1.60 1.67 1.74 1.86 1.76 1.67 1.66 1.67 1.64 1.65 1.63 1.63 1.67 1.76 1.70 1.49
1.78 1.91 1.91 1.94 1.93 1.84 1.72 1.76 1.85 1.92 1.92 1.88 1.75 1.58 1.44 1.46 1.60 1.68 1.72 1.66 1.58 1.55 1.47 1.39 1.40 1.42 1.37 1.47 1.52 1.46 1.39 1.39 1.42 1.32 1.36 1.49 1.55 1.53 1.51 1.56 1.62 1.68 1.60 1.44
1.62 1.69 1.76 1.80 1.70 1.70 1.69 1.73 1.77 1.68 1.74 1.71 1.58 1.46 1.42 1.56 1.74 1.78 1.64 1.49 1.42 1.42 1.40 1.29 1.16 1.07 1.10 1.16 1.16 1.13 1.06 1.06 1.06 1.05 1.16 1.27 1.29 1.32 1.38 1.44 1.47 1.49 1.40 1.27
1.51 1.45 1.46 1.46 1.36 1.43 1.53 1.56 1.62 1.60 1.61 1.56 1.49 1.51 1.53 1.60 1.66 1.65 1.46 1.39 1.36 1.31 1.25 1.16 1.12 0.93 0.89 0.89 0.95 0.94 0.97 1.02 1.04 1.04 1.11 1.14 1.14 1.19 1.33 1.40 1.40 1.38 1.30 1.23
1.38 1.28 1.24 1.24 1.19 1.22 1.32 1.34 1.33 1.36 1.38 1.38 1.50 1.58 1.52 1.50 1.44 1.40 1.32 1.31 1.25 1.13 1.04 0.99 0.95 0.95 0.95 0.94 0.97 0.95 0.99 1.02 1.05 1.00 0.97 0.99 1.04 1.09 1.14 1.16 1.19 1.21 1.19 1.15
1.20 1.14 1.13 1.18 1.19 1.13 1.16 1.15 1.15 1.19 1.25 1.33 1.46 1.51 1.43 1.39 1.32 1.34 1.42 1.36 1.20 1.02 0.97 1.01 0.92 0.89 0.88 0.93 0.91 0.88 0.94 1.00 1.03 1.09 1.09 1.07 1.07 1.08 1.09 1.06 1.05 1.07 1.10 1.14
1.26 1.14 1.08 1.07 1.11 1.11 1.07 1.02 0.98 0.95 1.01 1.11 1.12 1.20 1.33 1.42 1.35 1.33 1.37 1.39 1.25 1.23 1.02 0.92 0.85 0.83 0.85 0.85 0.85 0.94 0.99 1.05 1.12 1.20 1.22 1.20 1.21 1.23 1.20 1.15 1.15 1.12 1.14 1.17
1.33 1.25 1.20 1.18 1.19 1.21 1.08 1.00 0.95 0.94 0.97 1.00 0.98 1.07 1.20 1.33 1.34 1.34 1.31 1.20 1.10 1.20 1.09 0.99 0.98 0.94 0.89 0.84 0.94 1.05 1.06 1.07 1.11 1.15 1.19 1.22 1.25 1.26 1.26 1.24 1.29 1.28 1.27 1.30
1.41 1.28 1.21 1.14 1.09 1.14 1.16 1.10 1.01 0.96 0.93 0.93 0.94 1.00 1.13 1.21 1.23 1.16 1.13 1.12 1.06 1.06 1.03 1.10 1.10 1.06 1.00 0.92 1.01 1.07 1.09 1.13 1.16 1.14 1.12 1.15 1.20 1.19 1.24 1.27 1.30 1.32 1.32 1.32
1.52 1.33 1.18 1.10 1.08 1.05 1.07 1.07 1.00 0.89 0.83 0.86 0.81 0.84 0.93 1.05 1.16 1.12 1.05 0.99 0.97 0.95 0.98 1.08 1.10 1.13 1.06 1.04 1.04 1.04 1.06 1.15 1.22 1.19 1.14 1.16 1.18 1.20 1.22 1.22 1.19 1.18 1.19 1.24
1.55 1.43 1.30 1.17 1.05 1.00 1.00 1.03 1.04 0.99 0.93 0.91 0.87 0.89 0.94 0.95 0.97 1.03 1.09 1.05 0.99 0.98 1.01 1.06 1.06 1.08 1.04 1.07 1.12 1.13 1.12 1.16 1.18 1.18 1.18 1.20 1.24 1.25 1.18 1.09 1.03 1.02 1.02 1.04
1.43 1.36 1.27 1.18 1.06 0.97 0.98 1.03 1.06 1.06 1.04 1.07 1.04 1.02 1.10 1.09 1.06 1.06 1.02 0.98 0.94 0.93 0.97 1.00 0.99 0.95 0.90 0.88 0.90 0.93 0.96 0.99 1.03 1.09 1.15 1.18 1.17 1.15 1.08 1.01 0.98 0.96 0.95 0.92